Flag for U.S.A. Weather past 2 weeks in Oklahoma City, Oklahoma, U.S.A.

31 °F

Freezing rain. Ice fog.

Feels Like: 20 °F
Forecast: 31 / 35 °F
Wind: 16 mph from North

Location: Will Rogers World Airport

Current Time: Nov 27, 2015 at 10:35:45 PM

Latest Report: Nov 27, 2015 at 9:52 PM

Visibility: 4 mi

Pressure: 30.35 "Hg

Humidity: 96%

Dew point: 30 °F

Location of Oklahoma CityLocation

Historic Weather in Oklahoma City — Graph


Oklahoma City temperature yesterday

Maximum temperature yesterday: 65 °F (at 2:52 AM)
Minimum temperature yesterday: 36 °F (at 11:52 PM)
Average temperature yesterday: 55 °F

Past Weeks' High & Low Weather Summary

High70 °F (Nov 17, 12:52 AM)100% (Nov 15, 10:52 PM)30.43 "Hg (Nov 15, 10:52 PM)
Low23 °F (Nov 22, 3:52 AM)21% (Nov 13, 2:52 PM)29.36 "Hg (Nov 17, 2:52 PM)
Average50 °F70%30.05 "Hg
* Reported Nov 12 8:52 PM — Nov 27 8:52 PM, Oklahoma City, Weather by CustomWeather, © 2015

Note: Actual official high and low records may vary slightly from our data, if they occured in-between our weather recording intervals... More about our weather records


Oklahoma City weather history for previous 24 hours

Time TempWeatherWind HumidityBarometerVisibility
8:52 PM
Fri, Nov 27
31 °FLight freezing rain. Ice fog.16 mph96%30.36 "Hg5 mi
7:52 PM31 °FLight freezing rain. Low clouds.13 mph96%30.37 "Hg10 mi
6:52 PM31 °FLight freezing rain. Low clouds.16 mph96%30.35 "Hg10 mi
5:52 PM31 °FLight freezing rain. Ice fog.17 mph96%30.33 "Hg6 mi
5:04 PM31 °FLight freezing rain. Ice fog.21 mph96%30.32 "Hg3 mi
3:52 PM32 °FLight freezing rain. Ice fog.18 mph96%30.32 "Hg5 mi
2:52 PM32 °FLight freezing rain. Mostly cloudy.17 mph96%30.32 "Hg5 mi
1:52 PM32 °FLight freezing rain. Low clouds.21 mph96%30.33 "Hg5 mi
12:52 PM32 °FLight rain. Ice fog.23 mph96%30.34 "Hg6 mi
11:52 AM33 °FLight rain. Fog.22 mph92%30.35 "Hg6 mi
10:52 AM33 °FFog.23 mph96%30.34 "Hg5 mi
9:58 AM32 °FLight rain. Low clouds.26 mph96%30.32 "Hg3 mi
8:52 AM33 °FLight rain. Fog.23 mph92%30.34 "Hg6 mi
7:52 AM33 °FLight rain. Mostly cloudy.23 mph96%30.30 "Hg7 mi
6:52 AM33 °FLight rain. Fog.20 mph100%30.28 "Hg4 mi
5:52 AM33 °FLight rain. Mostly cloudy.20 mph100%30.26 "Hg7 mi
4:52 AM34 °FLight rain. Fog.22 mph97%30.25 "Hg6 mi
3:52 AM34 °FLow clouds.20 mph97%30.26 "Hg10 mi
2:52 AM35 °FMostly cloudy.23 mph96%30.24 "Hg10 mi
1:52 AM35 °FLight rain. Overcast.23 mph96%30.22 "Hg7 mi
12:52 AM35 °FHeavy rain. Fog.21 mph96%30.22 "Hg4 mi
11:52 PM
Thu, Nov 26
36 °FLight rain. Low clouds.22 mph97%30.21 "Hg9 mi
10:59 PM38 °FLight rain. Fog.23 mph97%30.20 "Hg4 mi
Weather by CustomWeather, © 2015

See weather overviewHow to use our weather pages